Other Public Products
Issued by NWS Charleston, SC

Current Version | Previous Version | Text Only | Print | Product List | Glossary Off
Versions: 1 2 3 4 5 6 7 8 9 10 11 12 13 14 15 16 17 18 19 20 21 22 23 24 25 26 27 28 29 30 31 32 33 34 35 36 37 38 39 40 41 42 43 44 45 46 47 48 49 50
378 FPUS82 KCHS 212312 OPUCHS TEST...KCHS/KSAV Gateway Observations...TEST National Weather Service Charleston SC 700 PM EDT SAT APR 21 2018 NOTE: "fair" indicates few or no clouds below 12,000 feet with no significant weather and/or obstructions to visibility. SCZ050-WAZ558-NCZ071-TXZ119-213-PAZ071-DCZ001-FLZ074-172-MI076- NYZ176-178-MAZ016-IL014-TNZ027-NJZ106-GAZ044-MD014-220000- ...Gateway Observations for Charleston International... CITY SKY/WX TMP DP RH WIND PRES REMARKS Chas Airport FAIR 65 51 60 E12 30.31F Seattle CLOUDY 53 37 54 NE7 30.41S Charlotte FAIR 68 32 26 SW6 30.30F Dallas DFW CLOUDY 63 63 100 E9 29.87F FOG Dallas Love CLOUDY 65 62 90 E8 29.90F Philladelphia CLOUDY 58 27 30 W13 30.32S Wash National MOCLDY 59 31 34 S8 30.35S Baltimore MOCLDY 60 27 28 VRB3 30.33S Miami FAIR 79 70 74 E12G17 30.07R Detroit CLOUDY 53 24 32 SE7 30.41S Newark MOCLDY 61 32 33 W15 30.26S Laguardia MOCLDY 60 21 22 NW13 30.26R J F K MOCLDY 48 37 65 S20 30.28S Boston Logan FAIR 57 17 21 NW17 30.20R Ft. Lauderdale MOCLDY 79 72 79 NE10 30.06S Chicago O`Hare PTSUNNY 51 20 29 E9 30.35F Chicago Midway PTSUNNY 50 20 30 E9 30.37S Houston Bush LGT RAIN 71 68 90 SE16 29.92S FOG Houston Hobby CLOUDY 73 69 87 SE13 29.91F Nashville PTSUNNY 74 32 21 VRB7 30.17F Atlanta PTSUNNY 69 43 38 E10 30.24S $$ GAZ044-118-TXZ119-213-NCZ071-DCZ001-MDZ014-506-PAZ021-071-NJZ106- NYZ176-178-MAZ106-OHZ011-021-055-MIZ076-KYZ091-ILZ014-INZ047- MNZ060-ONZ431-220000- ...Gateway Observations for Savannah International... CITY SKY/WX TMP DP RH WIND PRES REMARKS Savannah Arpt CLOUDY 67 53 61 E13 30.28S Atlanta PTSUNNY 69 43 38 E10 30.24S Charlotte FAIR 68 32 26 SW6 30.30F Dallas DFW CLOUDY 63 63 100 E9 29.87F FOG Houston Bush LGT RAIN 71 68 90 SE16 29.92S FOG Wash National MOCLDY 59 31 34 S8 30.35S Wash Dulles MOCLDY 60 23 24 CALM 30.33F Baltimore MOCLDY 60 27 28 VRB3 30.33S Philadelphia CLOUDY 58 27 30 W13 30.32S Newark MOCLDY 61 32 33 W15 30.26S Laguardia MOCLDY 60 21 22 NW13 30.26R J F K MOCLDY 48 37 65 S20 30.28S Boston FAIR 57 17 21 NW17 30.20R Pittsburg PTSUNNY 55 17 22 N3 30.34F Akron PTSUNNY 56 16 20 VRB3 30.37S Cleveland CLOUDY 45 22 40 N7 30.43S Cincinnati CLOUDY 59 19 21 E10 30.30F Columbus FAIR 55 26 31 NE9 30.34S Detroit CLOUDY 53 24 32 SE7 30.41S Chicago O`Hare PTSUNNY 51 20 29 E9 30.35F Minneapolis FAIR 58 15 18 VRB6 30.33S Indianapolis PTSUNNY 59 21 23 E10 30.31S Toronto Canada MOSUNNY 55 19 24 NW14 30.37S $$

USA.gov is the U.S. government's official web portal to all federal, state and local government web resources and services.